Regional Weather Roundup
Issued by NWS San Diego, CA

Home | Current Version | Previous Version | Text Only | Print | Product List | Glossary On
Versions: 1 2 3 4 5 6 7 8 9 10 11 12 13 14 15 16 17 18 19 20 21 22 23 24 25 26 27 28 29 30 31 32 33 34 35 36 37 38 39 40 41 42 43 44 45 46 47 48 49 50
000
ASUS46 KSGX 232111
RWRSGX
SAN DIEGO HOURLY WEATHER ROUNDUP
NATIONAL WEATHER SERVICE SAN DIEGO CA
200 PM PDT WED AUG 23 2017

NOTE: "FAIR" INDICATES FEW OR NO CLOUDS BELOW 12,000 FEET WITH NO
SIGNIFICANT WEATHER AND/OR OBSTRUCTIONS TO VISIBILITY.

CAZ042-043-060-061-PZZ750-775-232200-

GREATER SAN DIEGO AREA

CITY           SKY/WX    TMP DP  RH WIND       PRES   REMARKS
SAN DIEGO AP   CLOUDY    70  61  73 W8        29.98F
NATIONAL CITY    N/A     69  64  83 W3        29.99F
IMPERIAL BEACH CLOUDY    69  60  73 W10       29.97F
BROWN FIELD    CLOUDY    68  62  81 W8        29.97F
MIRAMAR MCAS   CLOUDY    72  61  68 W8        29.97F
MONTGOMERY FLD CLOUDY    71  61  70 NW8       29.97F
GILLESPIE FLD  CLOUDY    72  63  73 W9        29.97F FOG

$$

NORTH SAN DIEGO COUNTY

CITY           SKY/WX    TMP DP  RH WIND       PRES   REMARKS
CAMP PENDLETON PTSUNNY   63  63 100 W8        29.95F
OCEANSIDE AP   CLOUDY    74  65  73 W10       29.95F
OCEANSIDE HBR    N/A     69  64  84 NW10      29.98F
VISTA            N/A     69  63  83 SW3       29.93F
CARLSBAD       CLOUDY    67  64  90 VRB6      29.96F
DEL MAR          N/A     68  64  86 CALM      29.98F
LA JOLLA SCRIP   N/A     67  64  90 W3        29.96F
FALLBROOK        N/A     75  69  79 S2        29.95F
ESCONDIDO        N/A     74  65  74 S9        29.96F
POWAY            N/A     71  64  78 W3        29.96F

$$

EAST SAN DIEGO COUNTY

CITY           SKY/WX    TMP DP  RH WIND       PRES   REMARKS
RAMONA         MOSUNNY   81  65  58 W12       29.96F
SANTEE LAKES     N/A     70  64  83 SW6       29.94F
LA MESA          N/A     68  63  84 CALM      29.90F
JAMUL            N/A     73  65  75 CALM      29.94F
DESCANSO N       N/A     79  61  52 W3        29.80F
CAMPO            N/A     84  59  42 SW17      29.95F

$$

ORANGE COUNTY AND THE LOS ANGELES BASIN

CITY           SKY/WX    TMP DP  RH WIND       PRES   REMARKS
JOHN WAYNE AP  MOSUNNY   74  62  66 SW9       29.94F
LAKE FOREST FR   N/A     81  62  51 W3        29.82F
HUNTINGTON BCH   N/A     75  66  73 W8        29.96F
LOS ALAMITOS   MOSUNNY   75  63  64 SW9       29.94F
FULLERTON      SUNNY     79  63  57 S8        29.92F
LONG BEACH     SUNNY     73  62  68 S9        29.94F
L.A. AP        MOSUNNY   73  62  68 W13       29.95F
L.A. DOWNTOWN  SUNNY     76  62  62 W6        29.93F

$$

THE INLAND EMPIRE

CITY           SKY/WX    TMP DP  RH WIND       PRES   REMARKS
CORONA         SUNNY     83  63  50 W13G23    29.91F
CHINO          MOSUNNY   87  61  41 W13       29.93F
ONTARIO        MOSUNNY   84  60  44 SW13      29.93F
SAN BERNARDINO MOSUNNY   90  55  31 SW10      29.93F HAZE
RIVERSIDE AP   SUNNY     84  62  47 W12G18    29.92F
MORENO VALLEY    N/A     90  63  41 SW5       28.06S
MARCH ARB      SUNNY     85  60  41 NW13      29.94F
HORSETHIEF CYN   N/A     84  57  39 NE3       29.90F
PERRIS           N/A     87  63  45 NW6       29.93F
HEMET EAST       N/A     86  53  31 SW3       29.93F
FRENCH VALLEY  FAIR      81  63  54 SW10      29.95F
TEMECULA         N/A     80  65  60 SW9       29.97F

$$

SAN BERNARDINO AND RIVERSIDE COUNTY MOUNTAINS

CITY           SKY/WX    TMP DP  RH WIND       PRES   REMARKS
BIG BEAR AP    MOSUNNY   75  37  25 S6        30.23F
PINE COVE        N/A     74  52  46 NW1       29.84F

$$

SOUTHERN DESERT INCLUDING THE COACHELLA VALLEY

CITY           SKY/WX    TMP DP  RH WIND       PRES   REMARKS
PALM SPRINGS   SUNNY    105  55  19 CALM      29.79F HX 104
THOUSAND PALMS   N/A    103  63  26 S5        29.74F HX 106
PALM DESERT      N/A    106  65  26 CALM      31.61S HX 111
THERMAL        SUNNY    105  59  22 SE8       29.72F HX 105
BLYTHE         SUNNY    106  59  21 S14G22    29.77F HX 106
IMPERIAL AP    MOSUNNY  105  61  23 MISG      29.73F HX 106
EL CENTRO NAS  MOSUNNY  106  55  18 MISG      29.75F HX 105
YUMA AZ        MOSUNNY  105  60  22 S14       29.76F HX 106
MEXICALI       SUNNY    104  57  21 SE7       29.76F HX 103

$$

UPPER DESERT

CITY           SKY/WX    TMP DP  RH WIND       PRES   REMARKS
VICTORVILLE AP MOSUNNY   97  43  15 S12       29.95F
HESPERIA         N/A     94  51  23 W5        29.90F
PALMDALE       SUNNY     96  43  16 SW12      29.94F
LANCASTER      SUNNY     96  42  15 SW14G26   29.93F
EDWARDS AFB    MOSUNNY   96  39  13 N8        29.89F
DAGGETT        MOSUNNY  102  49  16 E12G24    29.84F HX  99
29 PALMS N     PTSUNNY   98  49  18 SE13G24   29.94F HX  95
NEEDLES        SUNNY    108  46  12 SW6       29.79F HX 104

$$

REGIONAL REPORTS

CITY           SKY/WX    TMP DP  RH WIND       PRES   REMARKS
SANTA BARBARA  MOSUNNY   69  61  75 VRB6      29.96F
SANDBERG       SUNNY     85  38  18 S15G23    30.12F
LAS VEGAS NV   PTSUNNY   97  46  17 VRB3      29.90F
PHOENIX AZ     MOSUNNY  104  56  20 SW5       29.82F HX 103
TIJUANA        CLOUDY    68  63  83 W8        30.00F
ENSENADA NW      N/A     68  32  26 CALM      29.94F

$$

OFFSHORE ISLANDS

CITY           SKY/WX    TMP DP  RH WIND       PRES   REMARKS
CATALINA ARPT  SUNNY     67  58  72 W8        29.99F
SAN CLEMENTE I CLOUDY    68  59  73 W13       29.99F
SAN NICOLAS IS PTSUNNY   68  56  65 NW17      29.98F

$$

MARINE AND OFFSHORE BUOY REPORTS

STATION/POSITION SKY/WX   TEMP    WIND        PRES    VSBY  SWELL
                          AIR SEA DIR/SP/G                  HT/PER/DIR
                          (F)     (DEG/KT/KT) (MB)    (MI)  (FT/S/D)
TANNER BANKS               65 67  310/ 14/ 16 1015.2F         3/300/ 9
S CLEMENTE BASIN           66 70  290/ 12/ 14 1015.2F         2/200/11
SAN NICOLAS IS.               65                N/A           2/200/11
SO. S. ROSA ISLA           63 65  320/ 12/ 14 1015.3F         3/210/ 8
W. S. BARBARA CH           62 63  300/ 14/ 17 1015.0
M. S. BARBARA CH           63 64  260/ 10/ 12 1015.6
S. MONICA BASIN               70  310/  6/ 10 1014.3F         2/190/ 9
S PEDRO CHANNEL               70                N/A           2/170/14
CMP PENDLETON NS              69                N/A           2/210/14
OCEANSIDE OFFSHR              72                N/A           2/200/14
TORREY PINES OTR              71                N/A           2/220/12
SAN DIEGO BAY                 74              1015.2F
POINT LOMA SOUTH              69                N/A           2/230/11

$$




USA.gov is the U.S. government's official web portal to all federal, state and local government web resources and services.